www.pogodaiklimat.ru

Погода и климат >> Архив погоды >> Австралия >> Северная территория >> Ладжаману


ПОГОДА в Ладжаману

  • Прогноз погоды в Ладжаману
  • Монитор погоды в Ладжаману

АРХИВ ПОГОДЫ в Ладжаману

Время (UTC), дата Ветер
(напр.,м/с)
 
Видим.   Явления Облачность Т
(С)
Тd
(С)
f
(%)
Тe
(С)
Тes
(С)
Комфортность P
(гПа)
Po
(гПа)
Тmin
(С)
Tmax
(С)
R
(мм)
R24
(мм)
S
(см)
11 12.08 ЮВ 3 н/о н/о +19.0 -6.6 17 +19 +19 1020.2 983.5
14 12.08 ЮВ 3 н/о н/о +15.1 -5.9 23 +15 +15 1020.9 984.2 +25.9
17 12.08 ЮВ 3 н/о н/о +13.8 -6.4 24 +13 +13 1019.9 983.3
20 12.08 В 3 н/о н/о +10.9 -5.5 31 +10 +10 1020.2 983.5
23 12.08 В 5 н/о н/о +15.2 -3.6 27 +14 +14 1022.4 985.7
02 13.08 В 7 н/о н/о +21.6 -3.7 18 +21 +21 комфорт 1022.2 985.5 +9.3
05 13.08 ЮВ 7 н/о н/о +25.2 -7.3 11 +23 +23 комфорт 1018.5 981.9
08 13.08 ЮВ 6 н/о н/о +24.4 -9.1 10 +22 +22 комфорт 1017.9 981.3
11 13.08 ЮВ 3 н/о н/о +18.3 -9.6 14 +19 +19 1019.6 983.0
14 13.08 ЮВ 3 н/о н/о +14.5 -8.8 19 +14 +14 1020.5 983.8 +26.2
17 13.08 ЮВ 3 н/о н/о +12.3 -7.7 24 +12 +12 1020.2 983.5
20 13.08 ЮВ 2 н/о н/о +8.4 -7.7 31 +7 +7 1020.3 983.6
23 13.08 В 5 н/о н/о +14.5 -5.3 25 +13 +13 1022.0 985.3
02 14.08 В 7 н/о н/о +22.3 -5.6 15 +21 +21 комфорт 1021.6 984.9 +7.1
05 14.08 В 5 н/о н/о +25.9 -6.8 11 +23 +23 комфорт 1018.1 981.5
08 14.08 ЮВ 5 н/о н/о +25.1 -8.6 10 +22 +22 комфорт 1017.2 980.7
11 14.08 В 2 н/о н/о +16.7 -9.2 16 +17 +17 1018.6 982.0
14 14.08 штиль 0 н/о н/о +12.6 -8.5 22 +13 +13 1019.0 982.4 +26.6
17 14.08 Ю 2 н/о н/о +10.4 -8.8 25 +10 +10 1018.7 982.1
20 14.08 Ю 2 н/о н/о +8.6 -9.3 27 +8 +8 1018.4 981.8
23 14.08 ЮВ 2 н/о н/о +14.2 -8.4 20 +15 +15 1020.5 983.8
02 15.08 В 5 н/о н/о +25.5 -9.7 9 +23 +23 комфорт 1020.6 983.9 +6.9
05 15.08 ЮВ 3 н/о н/о +27.5 -9.7 8 +24 +24 комфорт 1016.7 980.2
08 15.08 В 3 н/о н/о +27.7 -11.2 7 +24 +24 комфорт 1015.2 978.7
11 15.08 ЮВ 2 н/о н/о +19.0 -11.0 12 +19 +19 1017.1 980.6
14 15.08 штиль 0 н/о н/о +15.1 -11.3 15 +15 +15 1017.6 981.0 +28.9
17 15.08 Ю 2 н/о н/о +13.0 -10.7 18 +13 +13 1016.9 980.4
20 15.08 штиль 0 н/о н/о +10.5 -10.9 21 +11 +11 1016.3 979.8
23 15.08 ЮВ 2 н/о н/о +17.2 -9.6 15 +18 +18 1017.8 981.2
02 16.08 В 5 н/о н/о +28.5 -6.0 10 +25 +25 комфорт 1017.9 981.3 +9.2
05 16.08 СЗ 3 н/о н/о +30.9 -4.2 10 +27 +27 жарко 1014.8 978.3
08 16.08 С 1 н/о н/о +30.1 -4.8 10 +27 +27 жарко 1013.9 977.5
11 16.08 В 3 н/о н/о +23.3 -4.8 15 +21 +21 комфорт 1015.2 978.7
14 16.08 штиль 0 н/о н/о +17.4 -4.5 22 +17 +17 1015.5 979.0 +31.5
17 16.08 СЗ 2 н/о н/о +15.6 -4.9 24 +16 +16 1014.7 978.2
20 16.08 СЗ 2 н/о н/о +14.5 -5.3 25 +15 +15 1014.4 978.0
23 16.08 штиль 0 н/о н/о +17.9 -5.3 20 +18 +18 1015.8 979.3
02 17.08 СВ 4 н/о н/о +30.4 -4.6 10 +27 +27 жарко 1015.8 979.3 +12.4
05 17.08 С 4 н/о н/о +32.8 -2.8 10 +29 +29 жарко 1013.4 977.0
08 17.08 СЗ 3 н/о н/о +32.3 -6.1 8 +28 +28 жарко 1012.8 976.4
11 17.08 З 2 н/о н/о +22.4 -6.4 14 +21 +21 комфорт 1014.7 978.2
14 17.08 Ю 2 н/о н/о +18.7 -8.4 15 +19 +19 1015.9 979.4 +33.7
17 17.08 ЮЗ 2 н/о н/о +17.4 -8.6 16 +18 +18 1015.6 979.1
20 17.08 Ю 4 н/о н/о +18.3 +0.4 30 +18 +18 1015.7 979.2
23 17.08 Ю 6 н/о н/о +21.0 -0.3 24 +21 +21 комфорт 1017.7 981.1
02 18.08 Ю 8 н/о н/о +27.6 -1.3 15 +25 +25 комфорт 1017.8 981.2 +16.8
05 18.08 ЮВ 5 н/о н/о +31.4 -1.4 12 +28 +28 жарко 1015.0 978.5
08 18.08 ЮВ 4 н/о н/о +31.2 -1.5 12 +28 +28 жарко 1014.2 977.8
11 18.08 Ю 3 н/о н/о +25.7 -2.0 16 +24 +24 комфорт 1016.0 979.5
14 18.08 Ю 4 н/о н/о +21.9 -3.5 18 +21 +21 комфорт 1016.7 980.2 +32.6
17 18.08 Ю 5 н/о н/о +20.6 -7.8 14 +20 +20 1016.8 980.3
20 18.08 ЮВ 4 н/о н/о +17.6 -4.3 22 +17 +17 1018.3 981.7
23 18.08 ЮВ 8 н/о н/о +19.7 -2.6 22 +19 +19 1021.1 984.4
02 19.08 ЮВ 8 н/о н/о +24.6 -4.6 14 +22 +22 комфорт 1021.5 984.8 +17.5
05 19.08 В 7 н/о н/о +27.4 -5.6 11 +24 +24 комфорт 1018.5 981.9
08 19.08 ЮВ 8 н/о н/о +26.8 -7.3 10 +24 +24 комфорт 1018.0 981.4

 

Местоположение метеостанции Ладжаману (Северная территория, Австралия): широта -18.33 долгота 130.63 высота над уровнем моря 317 м.

В архиве по умолчанию представлена погода в Ладжаману за последнюю неделю. Архивные данные за месяц целиком и за предыдущие месяцы, начиная с января 2011 года, Вы можете получить, выбрав интересующий диапазон дат из раскрывающегося списка и нажав кнопку "Ввод!".


*Определитесь, кто Вы:
робот инопланетянин человек

Внимание! Время в таблицах - всемирное. Для получения местного времени необходимо прибавить поправку, которая равна 9.5 ч.

Смотрите также архив погоды в соседних городах и на ближайших метеорологических станциях:

Погода в Раббит Флат (Северная территория, Австралия) (216 км)
Погода в Виктория-Ривер (Северная территория, Австралия) (219 км)
Погода в Аэропорту Аргайл (Западная Австралия, Австралия) (299 км)
Погода в Холс Крик (Западная Австралия, Австралия) (314 км)
Погода на Базе ВВС Delamere Weapons Range (Северная территория, Австралия) (318 км)
Погода в Кунунарре (Западная Австралия, Австралия) (349 км)
Погода в Дейли Уотерс (Северная территория, Австралия) (372 км)
Погода в Манбуллу Ксиро (Северная территория, Австралия) (376 км)
Погода в Теннант-Крике (Северная территория, Австралия) (400 км)
Погода в Уиндеме (Западная Австралия, Австралия) (411 км)

Пояснения к столбцам:

Ветер - указаны скорость ветра в м/с - средняя за 10 мин, порывы в срок и между сроками (в фигурных скобках) и направление, откуда дует ветер: С - северный, СВ - северо-восточный, В - восточный, ЮВ - юго-восточный, Ю - южный, ЮЗ - юго-западный, З - западный, СЗ - северо-западный.
Видимость - горизонтальная дальность видимости в метрах или километрах. При видимости от 1 до 10 км при отсутствии осадков обычно наблюдается дымка, при ухудшении видимости до 1 км и менее - туман. В сухую погоду видимость может ухудшаться дымом, пылью или мглою.
Явления - указаны атмосферные явления, наблюдавшиеся в срок или в последний час перед сроком; фигурными скобками обозначены явления, наблюдавшиеся между сроками (за 1-3 часа до срока); квадратными скобками обозначены град или гололедные отложения с указанием их диаметра в мм.
Облачность - указаны через наклонную черту общая и нижняя облачность в баллах и высота нижней границы облаков в метрах; квадратными скобками обозначены формы облаков: Ci - перистые, Cs - перисто-слоистые, Cc - перисто-кучевые, Ac - высококучевые, As - высокослоистые, Sc - слоисто-кучевые, Ns - слоисто-дождевые, Cu - кучевые, Cb - кучево-дождевые. Подробнее классификацию облаков см. в Атласе облаков (PDF).
T - Температура воздуха - температура, измеренная на высоте 2 м над землей.
Td - Температура точки росы - температура, при понижении до которой содержащийся в воздухе водяной пар достигнет насыщения.
f - Относительная влажность воздуха - влажноcть воздуха, измеренная на высоте 2 м над землей.
Te - Эффективная температура - температура, которую ощущает одетый по сезону человек в тени. Характеристика душности погоды. При расчете учитывается влияние влажности воздуха и скорости ветра на теплоощущения человека.
Tes - Эффективная температура на солнце - температура, которую ощущает человек, с поправкой на солнечный нагрев. Характеристика знойности погоды. Зависит от высоты солнца над горизонтом, облачности и скорости ветра. Ночью, в пасмурную погоду, а также при ветре 12 м/с и более поправка равна нулю.
P - Атмосферное давление - приведенное к уровню моря атмосферное давление.
Po - Атмосферное давление - измеренное на уровне метеостанции атмосферное давление.
Tmin - Минимальная температура - минимум температуры воздуха на высоте 2 м над землей.
Tmax - Максимальная температура - максимум температуры воздуха на высоте 2 м над землей.
R - Количество осадков - Количество выпавших осадков за период времени, мм. При наведении курсора мыши на число - период времени, за который выпало указанное количество осадков.
R24 - Количество осадков - Количество выпавших осадков за 24 часа, мм.
S - Снежный покров - Высота снежного покрова, см. При наведении курсора мыши на число - состояние снежного покрова и степень покрытия местности в баллах.